TimePDT,TemperatureF,Dew PointF,Humidity,Sea Level PressureIn,VisibilityMPH,Wind Direction,Wind SpeedMPH,Gust SpeedMPH,PrecipitationIn,Events,Conditions,WindDirDegrees,DateUTC
12:52 AM,73.0,43.0,34,29.91,10.0,West,3.5,-,N/A,,Clear,280,2012-10-15 07:52:00
1:52 AM,71.1,43.0,36,29.92,10.0,SSE,3.5,-,N/A,,Clear,160,2012-10-15 08:52:00
2:52 AM,71.1,41.0,34,29.91,10.0,West,3.5,-,N/A,,Clear,260,2012-10-15 09:52:00
3:52 AM,69.1,41.0,36,29.90,10.0,West,4.6,-,N/A,,Clear,280,2012-10-15 10:52:00
5:52 AM,68.0,39.9,36,29.91,10.0,SW,4.6,-,N/A,,Clear,230,2012-10-15 12:52:00
6:52 AM,64.9,41.0,42,29.91,10.0,Calm,Calm,-,N/A,,Clear,0,2012-10-15 13:52:00
7:52 AM,68.0,44.1,42,29.93,10.0,Calm,Calm,-,N/A,,Clear,0,2012-10-15 14:52:00
8:52 AM,75.9,42.1,30,29.94,10.0,Calm,Calm,-,N/A,,Clear,0,2012-10-15 15:52:00
9:52 AM,81.0,43.0,26,29.93,10.0,Calm,Calm,-,N/A,,Clear,0,2012-10-15 16:52:00
11:52 AM,88.0,46.0,23,29.90,10.0,Variable,3.5,-,N/A,,Clear,0,2012-10-15 18:52:00
12:52 PM,90.0,45.0,21,29.88,10.0,East,3.5,-,N/A,,Clear,90,2012-10-15 19:52:00
1:52 PM,91.0,45.0,20,29.84,10.0,Variable,4.6,-,N/A,,Clear,0,2012-10-15 20:52:00
2:52 PM,93.0,44.1,18,29.82,10.0,Calm,Calm,-,N/A,,Clear,0,2012-10-15 21:52:00
3:52 PM,93.0,42.1,17,29.81,10.0,Calm,Calm,-,N/A,,Clear,0,2012-10-15 22:52:00
4:52 PM,93.9,43.0,17,29.79,10.0,SSE,4.6,-,N/A,,Clear,160,2012-10-15 23:52:00
5:52 PM,90.0,46.0,22,29.79,10.0,East,3.5,-,N/A,,Clear,100,2012-10-16 00:52:00
6:52 PM,84.9,48.0,28,29.80,10.0,Calm,Calm,-,N/A,,Clear,0,2012-10-16 01:52:00
7:52 PM,82.0,46.9,29,29.80,10.0,NNW,4.6,-,N/A,,Clear,330,2012-10-16 02:52:00
9:52 PM,75.0,44.1,33,29.81,10.0,West,5.8,-,N/A,,Clear,280,2012-10-16 04:52:00
10:52 PM,77.0,39.0,25,29.82,10.0,West,6.9,-,N/A,,Clear,260,2012-10-16 05:52:00
11:52 PM,71.1,41.0,34,29.81,10.0,Variable,3.5,-,N/A,,Clear,0,2012-10-16 06:52:00